When you browse on this site, cookies collect data to enhance your experience and personalize the content and advertising you see.
Visit our Privacy Policy to learn more. By continuing to use the site, you agree to this use of cookies and data.
  • en France
  • Liste des pays
  • À 7 jours
  • Température de l'eau
  • Carte météo
  • Widgets météo
  • user-avatar
    Se connecter

    Météo par heure à Bandar Seri Begavan

    Ce jour, 9 Décembre, Lundi

    Heure Température Précipitation Vent Pression Humidité
    00:00 +27°C° 0.3 mm 1 m/s 756 mmHg 92%
    01:00 +26°C° 0.3 mm 1 m/s 756 mmHg 92%
    02:00 +26°C° 0 mm 2 m/s 755 mmHg 93%
    03:00 +26°C° 0 mm 1 m/s 755 mmHg 93%
    04:00 +26°C° 0 mm 1 m/s 755 mmHg 93%
    05:00 +26°C° 0 mm 1 m/s 755 mmHg 93%
    06:00 +27°C° 0.2 mm 1 m/s 755 mmHg 91%
    07:00 +25°C° 0.2 mm 0 m/s 756 mmHg 90%
    08:00 +26°C° 0 mm 0 m/s 756 mmHg 87%
    09:00 +27°C° 0 mm 0 m/s 756 mmHg 79%
    10:00 +31°C° 0 mm 1 m/s 756 mmHg 72%
    11:00 +32°C° 0 mm 1 m/s 755 mmHg 64%
    12:00 +32°C° 0.7 mm 2 m/s 755 mmHg 70%
    13:00 +31°C° 0.7 mm 2 m/s 754 mmHg 76%
    14:00 +31°C° 0 mm 2 m/s 754 mmHg 76%
    15:00 +30°C° 0.9 mm 2 m/s 754 mmHg 80%
    16:00 +29°C° 0.9 mm 2 m/s 754 mmHg 83%
    17:00 +29°C° 0.9 mm 2 m/s 754 mmHg 87%
    18:00 +28°C° 1.6 mm 2 m/s 755 mmHg 88%
    19:00 +27°C° 1.6 mm 2 m/s 755 mmHg 89%
    20:00 +27°C° 0 mm 2 m/s 756 mmHg 90%
    21:00 +27°C° 0.6 mm 1 m/s 756 mmHg 90%
    22:00 +27°C° 0.6 mm 1 m/s 756 mmHg 90%
    23:00 +26°C° 0.6 mm 1 m/s 757 mmHg 89%

    Demain, 10 Décembre, Mardi

    Heure Température Précipitation Vent Pression Humidité
    00:00 +26°C° 0.1 mm 1 m/s 756 mmHg 91%
    01:00 +26°C° 0.1 mm 1 m/s 756 mmHg 92%
    02:00 +25°C° 0.1 mm 1 m/s 755 mmHg 93%
    03:00 +25°C° 0.1 mm 1 m/s 755 mmHg 93%
    04:00 +25°C° 0.1 mm 1 m/s 755 mmHg 93%
    05:00 +25°C° 0.1 mm 1 m/s 755 mmHg 93%
    06:00 +26°C° 0.1 mm 1 m/s 755 mmHg 91%
    07:00 +26°C° 0.1 mm 1 m/s 756 mmHg 90%
    08:00 +27°C° 0.1 mm 1 m/s 756 mmHg 88%
    09:00 +29°C° 0 mm 1 m/s 756 mmHg 79%
    10:00 +31°C° 0 mm 1 m/s 756 mmHg 70%
    11:00 +31°C° 0 mm 0 m/s 755 mmHg 61%
    12:00 +32°C° 0.1 mm 1 m/s 755 mmHg 65%
    13:00 +31°C° 0.1 mm 2 m/s 754 mmHg 69%
    14:00 +31°C° 0.1 mm 3 m/s 754 mmHg 72%
    15:00 +30°C° 0.4 mm 3 m/s 753 mmHg 76%
    16:00 +30°C° 0.4 mm 3 m/s 753 mmHg 80%
    17:00 +29°C° 0.4 mm 3 m/s 753 mmHg 84%
    18:00 +28°C° 0.5 mm 3 m/s 754 mmHg 86%
    19:00 +28°C° 0.5 mm 3 m/s 754 mmHg 89%
    20:00 +27°C° 0.5 mm 3 m/s 755 mmHg 91%
    21:00 +27°C° 0.1 mm 3 m/s 755 mmHg 91%
    22:00 +27°C° 0.1 mm 2 m/s 755 mmHg 91%
    23:00 +27°C° 0.1 mm 2 m/s 755 mmHg 91%

    Après-demain, 11 Décembre, Mercredi

    Heure Température Précipitation Vent Pression Humidité
    00:00 +27°C° 0 mm 2 m/s 755 mmHg 91%
    01:00 +27°C° 0 mm 2 m/s 754 mmHg 91%
    02:00 +26°C° 0 mm 2 m/s 754 mmHg 92%
    03:00 +26°C° 0 mm 1 m/s 754 mmHg 92%
    04:00 +26°C° 0 mm 1 m/s 754 mmHg 92%
    05:00 +26°C° 0 mm 1 m/s 754 mmHg 93%
    06:00 +27°C° 0 mm 1 m/s 754 mmHg 91%
    07:00 +27°C° 0 mm 1 m/s 754 mmHg 89%
    08:00 +28°C° 0 mm 1 m/s 755 mmHg 87%
    09:00 +30°C° 0.1 mm 1 m/s 755 mmHg 79%
    10:00 +30°C° 0.1 mm 0 m/s 754 mmHg 71%
    11:00 +31°C° 0.1 mm 0 m/s 754 mmHg 63%
    12:00 +32°C° 0.7 mm 1 m/s 754 mmHg 69%
    13:00 +31°C° 0.7 mm 2 m/s 753 mmHg 76%
    14:00 +30°C° 0.7 mm 3 m/s 752 mmHg 82%
    15:00 +30°C° 0.8 mm 3 m/s 752 mmHg 82%
    16:00 +30°C° 0.8 mm 3 m/s 752 mmHg 83%
    17:00 +29°C° 0.8 mm 3 m/s 752 mmHg 84%
    18:00 +29°C° 2.3 mm 3 m/s 753 mmHg 86%
    19:00 +28°C° 2.3 mm 3 m/s 753 mmHg 88%
    20:00 +28°C° 2.3 mm 3 m/s 754 mmHg 90%
    21:00 +27°C° 1.9 mm 3 m/s 754 mmHg 91%
    22:00 +27°C° 1.9 mm 2 m/s 754 mmHg 91%
    23:00 +27°C° 1.9 mm 2 m/s 755 mmHg 92%

    12 Décembre, Jeudi

    Heure Température Précipitation Vent Pression Humidité
    00:00 +27°C° 0.7 mm 2 m/s 754 mmHg 92%
    01:00 +27°C° 0.7 mm 2 m/s 754 mmHg 93%
    02:00 +27°C° 0.7 mm 2 m/s 753 mmHg 93%
    03:00 +27°C° 0.5 mm 2 m/s 753 mmHg 93%
    04:00 +26°C° 0.5 mm 1 m/s 753 mmHg 93%
    05:00 +26°C° 0.5 mm 1 m/s 753 mmHg 93%
    06:00 +27°C° 0.1 mm 2 m/s 753 mmHg 93%
    07:00 +27°C° 0.1 mm 2 m/s 754 mmHg 93%
    08:00 +27°C° 0.1 mm 2 m/s 754 mmHg 92%
    09:00 +29°C° 0.4 mm 2 m/s 754 mmHg 85%
    10:00 +30°C° 0.4 mm 2 m/s 754 mmHg 77%
    11:00 +32°C° 0.4 mm 2 m/s 754 mmHg 69%
    12:00 +32°C° 1.1 mm 2 m/s 754 mmHg 73%
    13:00 +31°C° 1.1 mm 2 m/s 753 mmHg 77%
    14:00 +31°C° 1.1 mm 2 m/s 753 mmHg 81%
    15:00 +30°C° 0.9 mm 2 m/s 752 mmHg 83%
    16:00 +30°C° 0.9 mm 2 m/s 752 mmHg 85%
    17:00 +29°C° 0.9 mm 1 m/s 752 mmHg 87%
    18:00 +29°C° 0.4 mm 1 m/s 753 mmHg 88%
    19:00 +28°C° 0.4 mm 1 m/s 754 mmHg 89%
    20:00 +27°C° 0.4 mm 1 m/s 754 mmHg 89%
    21:00 +27°C° 0 mm 1 m/s 754 mmHg 90%
    22:00 +27°C° 0 mm 1 m/s 755 mmHg 91%
    23:00 +27°C° 0 mm 1 m/s 755 mmHg 92%

    13 Décembre, Vendredi

    Heure Température Précipitation Vent Pression Humidité
    00:00 +27°C° 0 mm 1 m/s 754 mmHg 92%
    01:00 +26°C° 0 mm 1 m/s 754 mmHg 93%
    02:00 +26°C° 0 mm 1 m/s 754 mmHg 94%
    03:00 +26°C° 0.2 mm 1 m/s 753 mmHg 94%
    04:00 +26°C° 0.2 mm 1 m/s 753 mmHg 94%
    05:00 +26°C° 0.2 mm 1 m/s 753 mmHg 94%
    06:00 +26°C° 0.3 mm 1 m/s 754 mmHg 92%
    07:00 +27°C° 0.3 mm 1 m/s 754 mmHg 90%
    08:00 +28°C° 0.3 mm 1 m/s 755 mmHg 88%
    09:00 +29°C° 0.8 mm 1 m/s 755 mmHg 85%
    10:00 +30°C° 0.8 mm 1 m/s 755 mmHg 82%
    11:00 +31°C° 0.8 mm 1 m/s 755 mmHg 78%
    12:00 +31°C° 0.3 mm 2 m/s 754 mmHg 75%
    13:00 +31°C° 0.3 mm 2 m/s 753 mmHg 71%
    14:00 +33°C° 0.3 mm 3 m/s 753 mmHg 68%
    15:00 +31°C° 0.3 mm 3 m/s 753 mmHg 73%
    16:00 +30°C° 0.3 mm 3 m/s 753 mmHg 79%
    17:00 +29°C° 0.3 mm 3 m/s 752 mmHg 84%
    18:00 +29°C° 0 mm 3 m/s 753 mmHg 86%
    19:00 +28°C° 0 mm 2 m/s 754 mmHg 88%
    20:00 +28°C° 0 mm 2 m/s 754 mmHg 90%
    21:00 +28°C° 0 mm 2 m/s 755 mmHg 91%
    22:00 +27°C° 0 mm 2 m/s 755 mmHg 91%
    23:00 +27°C° 0 mm 2 m/s 755 mmHg 92%

    14 Décembre, Samedi

    Heure Température Précipitation Vent Pression Humidité
    00:00 +27°C° 0.1 mm 2 m/s 755 mmHg 93%
    01:00 +27°C° 0.1 mm 2 m/s 755 mmHg 94%
    02:00 +26°C° 0.1 mm 1 m/s 754 mmHg 95%
    03:00 +26°C° 0.4 mm 2 m/s 754 mmHg 95%
    04:00 +26°C° 0.4 mm 2 m/s 754 mmHg 95%
    05:00 +26°C° 0.4 mm 2 m/s 754 mmHg 96%
    06:00 +26°C° 0.1 mm 2 m/s 754 mmHg 94%
    07:00 +27°C° 0.1 mm 2 m/s 755 mmHg 92%
    08:00 +27°C° 0.1 mm 2 m/s 755 mmHg 90%
    09:00 +29°C° 0 mm 1 m/s 755 mmHg 83%
    10:00 +30°C° 0 mm 1 m/s 755 mmHg 75%
    11:00 +32°C° 0 mm 1 m/s 755 mmHg 67%
    12:00 +32°C° 0.2 mm 2 m/s 755 mmHg 68%
    13:00 +32°C° 0.2 mm 2 m/s 754 mmHg 69%
    14:00 +33°C° 0.2 mm 3 m/s 753 mmHg 70%
    15:00 +31°C° 1 mm 3 m/s 753 mmHg 76%
    16:00 +30°C° 1 mm 3 m/s 753 mmHg 82%
    17:00 +29°C° 1 mm 3 m/s 753 mmHg 88%
    18:00 +28°C° 0.9 mm 2 m/s 754 mmHg 89%
    19:00 +27°C° 0.9 mm 1 m/s 754 mmHg 89%
    20:00 +27°C° 0.9 mm 1 m/s 755 mmHg 89%
    21:00 +27°C° 0.1 mm 1 m/s 755 mmHg 90%
    22:00 +26°C° 0.1 mm 1 m/s 755 mmHg 91%
    23:00 +26°C° 0.1 mm 1 m/s 756 mmHg 91%
    Voir plus